Time,TemperatureF,DewpointF,PressureIn,WindDirection,WindDirectionDegrees,WindSpeedMPH,WindSpeedGustMPH,Humidity,HourlyPrecipIn,Conditions,Clouds,dailyrainin,SoftwareType,DateUTC
2013-02-16 00:02:00,34.2,24.8,29.88,NW,315,1.7,-999.0,68,-99.99,,,0.00,Acu-Link.com,2013-02-16 05:02:00,
2013-02-16 00:17:00,33.4,24.7,29.88,NW,315,1.7,-999.0,70,-99.99,,,0.00,Acu-Link.com,2013-02-16 05:17:00,
2013-02-16 00:32:00,32.5,24.2,29.87,NW,315,0.0,-999.0,71,-99.99,,,0.00,Acu-Link.com,2013-02-16 05:32:00,
2013-02-16 00:47:00,31.6,23.6,29.87,NW,315,0.0,-999.0,72,-99.99,,,0.00,Acu-Link.com,2013-02-16 05:47:00,
2013-02-16 01:03:00,31.1,23.8,29.87,NW,315,0.0,-999.0,74,-99.99,,,0.00,Acu-Link.com,2013-02-16 06:03:00,
2013-02-16 01:18:00,30.4,23.4,29.87,NW,315,0.0,-999.0,75,-99.99,,,0.00,Acu-Link.com,2013-02-16 06:18:00,
2013-02-16 01:33:00,29.8,23.2,29.88,NW,315,1.7,-999.0,76,-99.99,,,0.00,Acu-Link.com,2013-02-16 06:33:00,
2013-02-16 01:49:00,29.5,22.9,29.87,NW,315,0.0,-999.0,76,-99.99,,,0.00,Acu-Link.com,2013-02-16 06:49:00,
2013-02-16 02:04:00,28.6,22.3,29.88,NW,315,0.0,-999.0,77,-99.99,,,0.00,Acu-Link.com,2013-02-16 07:04:00,
2013-02-16 02:19:00,28.2,22.8,29.88,NW,315,0.0,-999.0,80,-99.99,,,0.00,Acu-Link.com,2013-02-16 07:19:00,
2013-02-16 02:35:00,27.7,22.4,29.88,NW,315,0.0,-999.0,80,-99.99,,,0.00,Acu-Link.com,2013-02-16 07:35:00,
2013-02-16 02:50:00,27.3,22.3,29.88,NW,315,0.0,-999.0,81,-99.99,,,0.00,Acu-Link.com,2013-02-16 07:50:00,
2013-02-16 03:05:00,27.3,22.0,29.87,NW,315,0.0,-999.0,80,-99.99,,,0.00,Acu-Link.com,2013-02-16 08:05:00,
2013-02-16 03:20:00,27.5,22.4,29.88,NW,315,0.0,-999.0,81,-99.99,,,0.00,Acu-Link.com,2013-02-16 08:20:00,
2013-02-16 03:36:00,28.2,23.1,29.88,NW,315,0.0,-999.0,81,-99.99,,,0.00,Acu-Link.com,2013-02-16 08:36:00,
2013-02-16 03:51:00,28.4,23.0,29.87,NW,315,0.0,-999.0,80,-99.99,,,0.00,Acu-Link.com,2013-02-16 08:51:00,
2013-02-16 04:18:00,28.8,22.8,29.86,NW,315,0.0,-999.0,78,-99.99,,,0.00,Acu-Link.com,2013-02-16 09:18:00,
2013-02-16 04:33:00,28.9,22.9,29.87,NW,315,0.0,-999.0,78,-99.99,,,0.00,Acu-Link.com,2013-02-16 09:33:00,
2013-02-16 04:49:00,29.3,21.4,29.87,North,0,1.7,-999.0,72,-99.99,,,0.00,Acu-Link.com,2013-02-16 09:49:00,
2013-02-16 05:04:00,29.3,20.4,29.88,North,0,0.0,-999.0,69,-99.99,,,0.00,Acu-Link.com,2013-02-16 10:04:00,
2013-02-16 05:19:00,28.9,20.0,29.87,WSW,247,0.0,-999.0,69,-99.99,,,0.00,Acu-Link.com,2013-02-16 10:19:00,
2013-02-16 05:34:00,28.8,19.9,29.87,SW,225,0.0,-999.0,69,-99.99,,,0.00,Acu-Link.com,2013-02-16 10:34:00,
2013-02-16 05:49:00,28.6,20.1,29.88,SW,225,0.0,-999.0,70,-99.99,,,0.00,Acu-Link.com,2013-02-16 10:49:00,
2013-02-16 06:05:00,28.2,19.4,29.89,SW,225,0.0,-999.0,69,-99.99,,,0.00,Acu-Link.com,2013-02-16 11:05:00,
2013-02-16 06:20:00,28.4,19.2,29.89,SW,225,0.0,-999.0,68,-99.99,,,0.00,Acu-Link.com,2013-02-16 11:20:00,
2013-02-16 06:35:00,28.4,18.9,29.88,SW,225,1.7,-999.0,67,-99.99,,,0.00,Acu-Link.com,2013-02-16 11:35:00,
2013-02-16 06:51:00,28.6,19.7,29.89,SW,225,0.0,-999.0,69,-99.99,,,0.00,Acu-Link.com,2013-02-16 11:51:00,
2013-02-16 07:06:00,28.0,19.5,29.89,SW,225,0.0,-999.0,70,-99.99,,,0.00,Acu-Link.com,2013-02-16 12:06:00,
2013-02-16 07:21:00,27.5,19.4,29.89,SW,225,0.0,-999.0,71,-99.99,,,0.00,Acu-Link.com,2013-02-16 12:21:00,
2013-02-16 07:36:00,27.7,19.2,29.89,SW,225,0.0,-999.0,70,-99.99,,,0.00,Acu-Link.com,2013-02-16 12:36:00,
2013-02-16 07:52:00,27.9,19.1,29.89,SW,225,0.0,-999.0,69,-99.99,,,0.00,Acu-Link.com,2013-02-16 12:52:00,
2013-02-16 08:07:00,28.4,19.6,29.89,SW,225,0.0,-999.0,69,-99.99,,,0.00,Acu-Link.com,2013-02-16 13:07:00,
2013-02-16 08:22:00,29.1,18.5,29.89,WNW,292,1.7,-999.0,64,-99.99,,,0.00,Acu-Link.com,2013-02-16 13:22:00,
2013-02-16 08:38:00,29.7,17.5,29.89,South,180,3.7,-999.0,60,-99.99,,,0.00,Acu-Link.com,2013-02-16 13:38:00,
2013-02-16 08:53:00,30.2,17.2,29.90,South,180,2.2,-999.0,58,-99.99,,,0.00,Acu-Link.com,2013-02-16 13:53:00,
2013-02-16 09:08:00,30.6,17.2,29.89,South,180,2.7,-999.0,57,-99.99,,,0.00,Acu-Link.com,2013-02-16 14:08:00,
2013-02-16 09:24:00,30.7,16.9,29.88,South,180,1.7,-999.0,56,-99.99,,,0.00,Acu-Link.com,2013-02-16 14:24:00,
2013-02-16 09:39:00,31.1,17.3,29.89,North,0,2.2,-999.0,56,-99.99,,,0.00,Acu-Link.com,2013-02-16 14:39:00,
2013-02-16 09:55:00,30.9,16.7,29.88,North,0,1.1,-999.0,55,-99.99,,,0.00,Acu-Link.com,2013-02-16 14:55:00,
2013-02-16 10:10:00,31.3,16.6,29.88,WNW,292,2.2,-999.0,54,-99.99,,,0.00,Acu-Link.com,2013-02-16 15:10:00,
2013-02-16 10:25:00,31.5,16.8,29.88,North,0,2.7,-999.0,54,-99.99,,,0.00,Acu-Link.com,2013-02-16 15:25:00,
2013-02-16 10:41:00,31.8,16.6,29.87,North,0,2.2,-999.0,53,-99.99,,,0.00,Acu-Link.com,2013-02-16 15:41:00,
2013-02-16 10:56:00,32.7,17.5,29.87,WNW,292,2.2,-999.0,53,-99.99,,,0.00,Acu-Link.com,2013-02-16 15:56:00,
2013-02-16 11:11:00,32.9,17.2,29.87,West,270,1.7,-999.0,52,-99.99,,,0.00,Acu-Link.com,2013-02-16 16:11:00,
2013-02-16 11:26:00,32.7,16.6,29.86,West,270,4.2,-999.0,51,-99.99,,,0.00,Acu-Link.com,2013-02-16 16:26:00,
2013-02-16 11:42:00,32.5,16.4,29.86,West,270,2.2,-999.0,51,-99.99,,,0.00,Acu-Link.com,2013-02-16 16:42:00,
2013-02-16 11:57:00,34.2,17.1,29.85,WNW,292,2.7,-999.0,49,-99.99,,,0.00,Acu-Link.com,2013-02-16 16:57:00,
2013-02-16 12:12:00,33.8,16.7,29.84,NNW,337,3.2,-999.0,49,-99.99,,,0.00,Acu-Link.com,2013-02-16 17:12:00,
2013-02-16 12:28:00,33.6,16.0,29.84,West,270,2.7,-999.0,48,-99.99,,,0.00,Acu-Link.com,2013-02-16 17:28:00,
2013-02-16 12:43:00,34.9,17.2,29.82,West,270,3.7,-999.0,48,-99.99,,,0.00,Acu-Link.com,2013-02-16 17:43:00,
2013-02-16 12:58:00,34.5,16.4,29.81,West,270,3.7,-999.0,47,-99.99,,,0.00,Acu-Link.com,2013-02-16 17:58:00,
2013-02-16 13:14:00,35.2,16.5,29.80,NW,315,5.3,-999.0,46,-99.99,,,0.00,Acu-Link.com,2013-02-16 18:14:00,
2013-02-16 13:29:00,34.2,15.6,29.80,West,270,1.7,-999.0,46,-99.99,,,0.00,Acu-Link.com,2013-02-16 18:29:00,
2013-02-16 13:44:00,34.7,15.6,29.78,NNW,337,2.7,-999.0,45,-99.99,,,0.00,Acu-Link.com,2013-02-16 18:44:00,
2013-02-16 14:00:00,36.3,16.0,29.78,North,0,2.2,-999.0,43,-99.99,,,0.00,Acu-Link.com,2013-02-16 19:00:00,
2013-02-16 14:15:00,35.2,15.5,29.78,NNW,337,2.2,-999.0,44,-99.99,,,0.00,Acu-Link.com,2013-02-16 19:15:00,
2013-02-16 14:30:00,35.8,15.0,29.78,WNW,292,2.2,-999.0,42,-99.99,,,0.00,Acu-Link.com,2013-02-16 19:30:00,
2013-02-16 14:45:00,36.0,15.2,29.77,SSW,202,1.7,-999.0,42,-99.99,,,0.00,Acu-Link.com,2013-02-16 19:45:00,
2013-02-16 15:01:00,35.6,14.3,29.77,NW,315,0.0,-999.0,41,-99.99,,,0.00,Acu-Link.com,2013-02-16 20:01:00,
2013-02-16 15:16:00,35.1,14.3,29.77,WNW,292,3.2,-999.0,42,-99.99,,,0.00,Acu-Link.com,2013-02-16 20:16:00,
2013-02-16 15:31:00,35.4,14.1,29.77,NNE,22,2.7,-999.0,41,-99.99,,,0.00,Acu-Link.com,2013-02-16 20:31:00,
2013-02-16 15:46:00,34.9,14.7,29.77,NNW,337,1.7,-999.0,43,-99.99,,,0.00,Acu-Link.com,2013-02-16 20:46:00,
2013-02-16 16:02:00,34.5,13.3,29.77,NNW,337,1.7,-999.0,41,-99.99,,,0.00,Acu-Link.com,2013-02-16 21:02:00,
2013-02-16 16:17:00,34.3,13.6,29.77,East,90,2.7,-999.0,42,-99.99,,,0.00,Acu-Link.com,2013-02-16 21:17:00,
2013-02-16 16:32:00,34.0,13.3,29.77,NE,45,0.0,-999.0,42,-99.99,,,0.00,Acu-Link.com,2013-02-16 21:32:00,
2013-02-16 16:48:00,33.6,12.4,29.77,West,270,0.0,-999.0,41,-99.99,,,0.00,Acu-Link.com,2013-02-16 21:48:00,
2013-02-16 17:03:00,33.1,13.6,29.77,North,0,2.2,-999.0,44,-99.99,,,0.00,Acu-Link.com,2013-02-16 22:03:00,
2013-02-16 17:18:00,32.4,14.9,29.78,East,90,1.7,-999.0,48,-99.99,,,0.00,Acu-Link.com,2013-02-16 22:18:00,
2013-02-16 17:34:00,32.0,14.1,29.79,East,90,1.7,-999.0,47,-99.99,,,0.00,Acu-Link.com,2013-02-16 22:34:00,
2013-02-16 17:49:00,31.5,14.1,29.79,East,90,1.7,-999.0,48,-99.99,,,0.00,Acu-Link.com,2013-02-16 22:49:00,
2013-02-16 18:04:00,30.9,13.1,29.78,ESE,112,3.7,-999.0,47,-99.99,,,0.00,Acu-Link.com,2013-02-16 23:04:00,
2013-02-16 18:20:00,30.7,13.4,29.79,ESE,112,0.0,-999.0,48,-99.99,,,0.00,Acu-Link.com,2013-02-16 23:20:00,
2013-02-16 18:35:00,30.4,13.1,29.79,NNW,337,0.0,-999.0,48,-99.99,,,0.00,Acu-Link.com,2013-02-16 23:35:00,
2013-02-16 18:50:00,30.0,13.2,29.80,NNW,337,0.0,-999.0,49,-99.99,,,0.00,Acu-Link.com,2013-02-16 23:50:00,
2013-02-16 19:06:00,29.7,12.9,29.79,NNW,337,1.7,-999.0,49,-99.99,,,0.00,Acu-Link.com,2013-02-17 00:06:00,
2013-02-16 19:21:00,29.7,12.0,29.79,NNE,22,1.1,-999.0,47,-99.99,,,0.00,Acu-Link.com,2013-02-17 00:21:00,
2013-02-16 19:36:00,29.3,12.5,29.78,NNE,22,0.0,-999.0,49,-99.99,,,0.00,Acu-Link.com,2013-02-17 00:36:00,
2013-02-16 19:52:00,29.1,11.9,29.78,North,0,0.0,-999.0,48,-99.99,,,0.00,Acu-Link.com,2013-02-17 00:52:00,
2013-02-16 20:07:00,28.8,12.1,29.79,North,0,1.7,-999.0,49,-99.99,,,0.00,Acu-Link.com,2013-02-17 01:07:00,
2013-02-16 20:22:00,29.1,13.3,29.78,NNE,22,1.7,-999.0,51,-99.99,,,0.00,Acu-Link.com,2013-02-17 01:22:00,
2013-02-16 20:37:00,28.8,14.7,29.78,ESE,112,2.2,-999.0,55,-99.99,,,0.00,Acu-Link.com,2013-02-17 01:37:00,
2013-02-16 20:53:00,28.2,14.5,29.79,ESE,112,0.0,-999.0,56,-99.99,,,0.00,Acu-Link.com,2013-02-17 01:53:00,
2013-02-16 21:08:00,27.7,14.1,29.79,SE,135,2.7,-999.0,56,-99.99,,,0.00,Acu-Link.com,2013-02-17 02:08:00,
2013-02-16 21:23:00,27.7,13.7,29.79,SE,135,2.2,-999.0,55,-99.99,,,0.00,Acu-Link.com,2013-02-17 02:23:00,
2013-02-16 21:39:00,27.3,13.7,29.78,SE,135,2.2,-999.0,56,-99.99,,,0.00,Acu-Link.com,2013-02-17 02:39:00,
2013-02-16 21:54:00,27.0,13.4,29.78,SE,135,0.0,-999.0,56,-99.99,,,0.00,Acu-Link.com,2013-02-17 02:54:00,
2013-02-16 22:09:00,26.8,13.6,29.78,SE,135,1.7,-999.0,57,-99.99,,,0.00,Acu-Link.com,2013-02-17 03:09:00,
2013-02-16 22:24:00,26.6,13.4,29.77,SE,135,0.0,-999.0,57,-99.99,,,0.00,Acu-Link.com,2013-02-17 03:24:00,
2013-02-16 22:40:00,26.2,13.5,29.77,SE,135,1.7,-999.0,58,-99.99,,,0.00,Acu-Link.com,2013-02-17 03:40:00,
2013-02-16 22:55:00,26.1,13.0,29.76,SE,135,2.2,-999.0,57,-99.99,,,0.00,Acu-Link.com,2013-02-17 03:55:00,
2013-02-16 23:10:00,25.7,12.6,29.76,SE,135,2.2,-999.0,57,-99.99,,,0.00,Acu-Link.com,2013-02-17 04:10:00,
2013-02-16 23:26:00,25.9,12.8,29.76,ENE,67,1.1,-999.0,57,-99.99,,,0.00,Acu-Link.com,2013-02-17 04:26:00,
2013-02-16 23:41:00,25.3,12.6,29.75,ENE,67,1.7,-999.0,58,-99.99,,,0.00,Acu-Link.com,2013-02-17 04:41:00,
2013-02-16 23:56:00,25.2,12.1,29.74,ENE,67,1.1,-999.0,57,-99.99,,,0.00,Acu-Link.com,2013-02-17 04:56:00,